ONEWEB-0164 (48063 NORAD) Tracking and Keplerian Element Data

This shows tracking and keplerian element data for the satellite.

Feedback or suggestion? Click here.




ElementValue
Catalog48063
NameONEWEB-0164
Epoch Orbit191
Epoch Day173.91668981
Epoch Year2021
RAAN322.2794
Inclination87.7671
Eccentricity0.0009279
Argument of Perigee329.5794
Mean Anonmoly133.7375
Mean Motion13.74456689
Decay Rate1.5E-07
L11 48063U 21025X 21173.91668981 .00000015 00000-0 00000-0 0 9999
L22 48063 87.7671 322.2794 0009279 329.5794 133.7375 13.74456689 1917

Live tracking and technical data element details for ONEWEB-0164 (NORAD 48063). ONEWEB-0164 can be tracked NOW for your location showing map with azimuth and elevation plus other details from your city location.

Track the satellite on the map from your city or location and see movement details for azimuth, elevation, latitude, longitude, range, height, and movement on the map or in text.







IsCatalogInMostPopularTable: catalog: 48063, numindb: 44
Update: records affected: 1



GetName: 48063 ONEWEB-0164

Hit Count: updated at: Thu, 24 Jun 2021 04:05:57 GMT